Wind_Speed
64 64 65 64 61 58 56 55 55 53 54 56 58 59 56 55 58 58 52 49 53 53 48 47 51 50 47 46 46 45 45 46 45 45 44 43 43 43 42 41 40 39 39 39 39 38 37 36 36 36 37 39 40 41 43 44 45 46 46 47 48 50 51 52 54 55 55 56 56 58 60 62 63 64 64 65 64 64 64 63 63 62 62 62 62 62 62
64 64 66 65 63 62 61 59 56 53 53 52 52 53 50 50 53 52 48 49 52 52 49 48 52 54 52 51 51 47 43 43 44 46 46 45 45 44 43 42 41 41 40 39 38 38 38 38 38 38 39 40 41 42 44 45 46 47 47 48 49 50 52 53 54 55 56 57 57 59 60 62 63 64 64 64 64 64 63 63 63 63 62 62 62 62 62
67 66 65 64 64 65 64 62 60 58 57 55 54 53 50 50 52 50 49 53 53 52 52 52 53 53 52 52 51 44 39 41 44 45 46 46 45 44 42 42 42 41 41 41 41 41 41 41 41 41 42 42 43 43 44 45 45 46 47 48 50 51 52 53 54 55 56 57 58 59 60 62 63 64 64 64 64 63 63 63 63 63 62 62 62 62 62
68 66 64 63 62 63 65 65 64 61 60 58 56 53 50 50 50 47 48 50 46 44 48 50 49 48 48 51 50 44 41 43 45 46 46 44 43 43 43 44 45 44 44 43 43 43 42 42 43 43 43 43 44 44 45 45 46 46 47 48 49 50 51 52 53 54 55 56 57 58 59 60 61 62 63 63 63 63 63 63 62 62 62 61 61 61 61
66 64 65 64 63 67 70 66 60 58 56 54 52 51 49 49 49 48 47 43 37 37 40 40 42 46 47 49 51 49 46 45 45 45 44 42 42 43 44 45 45 44 43 42 42 42 43 43 43 43 43 43 43 44 44 45 46 47 48 49 50 50 51 51 52 53 54 55 56 57 57 58 58 59 60 61 61 62 62 62 61 60 60 59 59 59 59
64 65 65 65 70 75 69 58 53 53 52 51 51 50 48 49 49 48 45 39 36 38 38 37 40 45 46 48 50 51 50 50 48 44 41 41 41 42 43 43 42 41 40 41 42 42 43 43 43 43 43 44 44 44 44 45 45 46 47 48 49 50 50 51 51 52 52 53 54 56 56 56 57 57 58 58 59 60 59 59 59 58 58 58 58 58 58
63 63 64 68 74 70 60 55 56 56 53 53 54 52 49 49 48 44 42 39 38 38 38 38 40 42 45 48 49 50 53 54 51 45 41 41 41 41 41 40 39 40 40 41 42 42 42 42 43 44 44 44 44 45 45 45 44 45 45 45 46 47 48 49 50 50 51 52 53 55 56 57 57 58 58 59 59 60 59 59 58 57 57 57 57 57 57
62 63 67 69 66 61 60 62 63 60 57 55 54 52 48 47 46 46 44 42 42 40 38 38 39 41 45 48 48 49 52 51 47 43 41 41 41 40 39 39 39 40 40 40 41 41 42 42 43 44 44 44 44 44 44 43 42 42 43 43 44 44 45 47 47 49 50 51 53 55 56 57 58 59 60 60 61 61 60 60 59 58 58 58 57 57 57
60 62 65 63 60 61 63 63 61 58 55 51 50 49 45 43 45 47 45 43 42 39 36 37 39 41 45 46 44 45 46 44 42 41 41 40 40 39 40 39 39 39 39 39 40 41 42 43 43 43 44 44 43 42 42 42 41 41 41 42 43 43 44 46 46 47 49 51 52 54 56 57 59 60 61 62 62 62 62 61 59 58 57 57 56 56 56
59 60 60 60 62 63 59 55 53 52 51 51 54 56 51 46 47 47 43 41 38 36 38 40 40 42 44 41 38 41 42 40 40 40 41 41 40 40 39 38 38 38 39 40 41 43 44 44 44 43 43 42 41 40 41 42 42 43 44 44 45 46 46 47 47 48 49 50 51 53 54 56 58 59 60 61 62 62 62 61 60 58 58 57 57 57 57
61 61 60 60 61 57 51 49 50 51 54 55 58 62 56 46 45 46 43 40 39 39 41 41 42 45 42 34 34 40 39 36 38 41 42 41 39 38 37 38 38 39 40 42 45 46 46 46 45 44 43 43 42 42 43 45 46 47 48 48 48 49 49 49 49 49 50 50 51 52 53 55 56 58 59 60 61 61 60 60 59 59 58 58 57 57 57
59 59 58 57 56 52 48 47 47 50 53 52 56 61 49 33 35 41 39 37 39 42 43 43 45 43 36 30 35 38 35 35 39 42 41 38 36 35 36 37 39 41 43 46 48 49 49 48 47 46 46 45 46 46 47 49 51 52 52 51 49 48 49 49 50 51 51 51 51 52 52 54 55 56 58 59 60 60 60 60 59 59 58 57 56 56 56
56 55 53 51 52 50 47 45 45 47 50 53 56 53 38 27 30 36 36 38 40 41 44 45 44 40 36 35 37 37 36 39 40 39 38 36 34 33 35 37 40 44 47 49 50 50 50 49 48 48 48 49 50 51 51 51 51 51 51 50 48 47 47 48 50 51 51 51 51 51 52 53 54 56 57 58 59 59 59 59 59 59 59 58 57 56 56
53 53 50 47 48 49 47 47 47 48 51 54 51 42 34 31 32 33 36 41 41 41 43 43 42 40 39 39 38 38 40 40 38 37 36 34 34 34 36 39 43 46 48 49 50 49 49 49 49 49 50 50 50 50 49 48 47 46 46 46 45 45 46 47 49 50 50 51 51 52 52 53 54 54 55 56 56 57 57 56 56 55 55 55 54 53 51
50 52 50 47 46 46 46 48 49 50 52 51 46 41 39 37 33 33 37 41 41 42 43 42 41 41 41 41 40 39 40 38 37 38 37 35 36 37 39 41 43 44 46 47 48 48 48 48 48 48 47 47 46 45 44 43 42 42 42 42 41 42 44 45 47 48 49 50 50 51 51 51 51 51 50 51 51 51 51 50 50 49 48 47 46 45 43
48 50 47 44 43 43 45 48 49 49 50 50 48 46 44 42 41 41 43 42 40 40 41 41 41 41 41 41 40 39 39 38 37 38 38 38 39 40 40 41 41 42 43 44 46 47 47 47 46 45 44 43 42 42 41 41 40 40 40 40 39 40 41 42 43 45 46 46 47 47 48 47 47 47 46 46 47 47 46 46 45 44 43 42 41 40 39
44 42 39 37 39 42 44 46 48 48 48 51 51 48 45 45 46 47 47 45 40 38 38 40 40 40 40 40 40 40 39 38 38 39 40 40 41 41 41 40 39 40 42 43 44 45 45 45 45 44 43 43 43 43 43 43 43 42 41 40 39 39 39 40 40 41 42 43 44 44 45 45 45 45 45 45 45 44 43 42 41 41 40 40 40 40 40
41 41 41 38 39 42 43 44 45 45 45 47 48 46 45 46 46 46 47 45 42 39 38 38 39 40 40 40 41 41 40 41 42 41 40 40 41 41 40 39 39 40 41 42 43 43 44 45 45 45 46 46 46 47 46 46 45 44 43 42 41 40 40 40 40 41 41 42 43 43 44 44 44 44 44 45 44 44 43 42 42 41 42 42 42 42 43
42 45 46 43 43 45 46 45 44 44 44 44 45 45 45 44 44 45 45 45 44 42 39 39 40 41 41 43 43 43 44 45 43 41 40 41 42 41 40 39 39 40 41 41 42 43 43 45 45 46 48 48 48 48 47 47 46 45 44 43 42 41 41 41 41 41 41 42 42 43 44 44 45 45 45 45 45 45 45 44 44 44 44 44 44 45 45
44 45 45 45 46 47 47 47 46 44 44 45 46 47 46 43 42 43 44 44 44 43 41 41 42 43 45 46 46 45 46 45 43 42 43 44 43 42 42 41 41 41 41 41 42 42 43 44 45 46 47 47 48 48 48 48 47 46 45 44 43 42 42 41 41 41 41 42 42 43 43 44 45 45 46 46 47 47 47 47 47 47 47 47 47 47 47
44 44 45 47 50 50 50 50 48 46 47 47 48 48 47 43 39 39 41 42 42 43 43 44 46 48 49 48 47 46 46 45 45 46 46 47 46 45 44 44 43 42 41 41 42 43 44 45 45 46 46 47 48 48 48 49 49 48 47 46 45 44 43 42 42 42 42 43 43 43 44 44 45 46 46 47 48 49 49 49 49 49 49 49 49 50 50
44 43 42 44 48 50 52 52 51 51 51 50 48 46 45 42 38 37 39 41 43 44 46 48 50 51 50 49 48 49 49 49 48 49 49 49 48 47 47 47 45 43 42 42 43 44 45 45 46 46 47 47 48 48 49 50 50 50 49 49 48 47 45 44 44 44 44 44 44 44 45 45 46 47 48 49 50 50 50 50 50 50 51 51 51 52 52
42 40 40 41 44 47 49 51 52 52 50 46 43 40 39 38 37 37 39 41 43 45 47 49 50 49 49 50 51 53 53 52 52 52 52 51 50 50 50 49 46 45 44 44 45 46 46 46 47 47 47 48 48 49 50 50 51 51 51 50 50 49 49 48 48 47 47 47 46 47 47 48 48 49 50 51 51 51 51 51 52 52 52 53 54 54 54
39 41 41 41 42 44 46 48 49 48 46 44 40 38 37 38 38 39 40 42 43 45 47 48 49 50 51 53 55 56 56 55 55 54 53 52 52 53 51 49 47 47 46 46 47 47 47 48 48 48 48 48 49 49 50 50 51 51 51 51 51 51 51 50 50 50 50 50 50 51 51 51 52 52 52 52 52 52 53 53 54 54 55 55 56 57 57
40 42 43 44 44 44 44 46 48 48 47 46 43 42 42 43 43 44 45 46 47 47 48 49 51 53 55 56 57 58 57 57 57 56 54 54 55 54 51 49 48 47 46 47 47 48 49 50 49 49 50 50 50 50 51 51 52 51 52 52 52 52 52 52 52 52 53 53 53 54 54 54 54 54 54 54 55 55 55 56 57 57 58 59 59 60 60
42 43 45 47 48 47 46 48 50 51 52 52 50 47 47 48 49 49 50 50 51 52 53 54 55 56 57 58 58 58 57 58 58 56 55 56 55 54 51 49 47 46 47 48 48 49 50 50 51 51 51 51 51 52 52 52 53 53 53 53 53 53 53 54 54 54 55 55 55 55 56 56 56 57 57 57 58 58 59 59 60 60 61 62 62 63 63
45 45 47 48 49 48 47 47 48 50 53 54 53 51 50 51 53 53 52 52 53 54 55 56 56 56 57 57 57 56 56 56 56 55 56 57 56 54 52 50 48 48 48 49 49 50 50 51 52 52 52 53 53 53 53 53 53 54 54 54 54 54 55 55 56 56 56 56 57 57 58 58 58 59 60 60 60 61 61 62 63 63 64 64 65 65 65
46 47 49 49 50 49 47 46 46 48 50 51 51 51 51 52 53 54 54 54 54 55 56 56 56 56 56 55 55 54 55 55 56 56 57 58 57 55 53 52 50 49 49 49 50 50 51 52 53 53 53 54 54 54 55 55 55 55 55 55 55 56 56 57 57 57 58 58 59 60 60 61 61 61 62 62 62 63 63 64 65 66 66 67 67 67 68
47 47 49 50 50 49 49 49 49 49 50 51 50 50 50 51 52 53 54 54 54 55 55 55 55 54 53 53 53 53 53 54 55 56 57 58 58 57 55 54 52 51 50 51 51 51 52 53 53 54 55 55 56 56 56 56 56 57 57 57 58 58 58 59 59 60 60 61 62 62 63 63 64 64 64 65 65 65 66 66 67 67 68 69 69 70 70
47 47 49 51 52 52 51 50 50 50 50 51 51 50 49 48 49 50 51 52 52 52 53 53 53 52 52 52 52 52 52 53 55 56 57 58 59 59 58 56 54 53 53 53 53 53 53 53 54 54 55 55 56 57 58 58 58 59 59 59 60 60 60 61 61 62 63 63 64 65 65 66 66 66 67 67 68 68 68 69 69 69 70 71 71 72 72
48 48 50 51 53 54 53 52 52 52 52 51 51 50 49 48 47 48 49 50 51 51 52 52 52 52 52 52 52 52 53 54 56 57 58 59 60 60 60 59 58 57 56 55 55 55 55 55 55 56 56 56 57 58 59 60 60 60 61 61 62 62 62 63 63 64 65 65 66 66 67 67 67 68 68 69 69 70 70 70 71 71 72 73 73 74 74
48 49 50 51 53 54 54 53 53 54 54 54 53 51 50 49 48 48 49 50 51 51 52 52 52 52 52 52 53 54 55 56 57 58 59 60 61 61 61 61 61 60 59 59 58 58 58 58 58 58 58 59 60 60 61 61 62 62 63 63 63 63 64 64 65 66 66 67 67 68 68 68 69 69 69 70 70 71 71 72 72 73 74 74 75 76 76
48 47 49 51 53 55 56 55 55 55 55 55 55 53 52 51 50 50 51 51 52 52 52 52 53 53 53 53 54 55 56 57 58 58 59 60 61 61 62 62 62 62 61 61 60 60 60 60 60 60 61 61 62 62 63 63 63 64 64 65 65 66 66 66 67 67 67 68 68 69 69 70 70 70 71 71 71 72 73 73 74 75 76 76 77 77 78
49 47 48 49 50 52 54 56 56 56 56 56 56 55 54 54 53 52 52 52 52 52 52 52 53 53 54 54 55 56 56 57 58 58 60 60 61 62 62 62 62 62 62 62 62 61 62 62 62 63 63 63 64 65 65 66 66 66 67 67 68 68 68 69 69 69 69 70 70 70 71 72 72 72 73 73 73 74 75 75 76 77 77 78 78 79 81
53 51 51 51 51 52 53 54 56 57 57 57 57 57 56 55 54 53 52 52 52 52 52 53 54 54 55 55 56 56 57 57 58 59 60 60 61 61 61 61 61 61 61 62 62 63 63 64 64 65 65 66 66 67 67 68 68 69 69 70 70 70 71 71 71 72 72 72 73 73 74 74 74 75 75 75 76 76 77 77 78 78 78 80 82 84 87
56 56 56 56 56 56 56 56 57 58 58 58 58 57 57 56 55 54 53 53 53 53 53 54 55 55 55 56 56 56 57 57 58 59 59 60 60 60 60 61 61 62 62 63 64 64 65 65 66 66 67 67 68 69 69 69 70 70 71 71 72 72 72 73 73 74 75 75 76 76 76 76 77 77 78 78 78 79 79 79 79 80 81 84 86 89 90
56 56 57 58 58 59 59 58 58 59 59 59 58 57 57 56 56 55 55 55 55 55 55 55 55 55 56 56 56 57 57 58 59 59 60 60 60 60 61 61 62 63 64 64 65 65 66 67 67 68 68 69 70 70 71 71 72 72 73 73 74 74 75 75 76 77 77 78 78 79 79 79 79 80 80 80 80 80 80 80 82 84 86 89 90 90 89
53 54 55 56 57 58 59 59 59 59 58 59 58 58 57 56 56 56 55 55 55 55 55 55 55 55 55 56 57 57 58 59 60 60 61 61 61 62 62 63 63 64 65 65 66 66 67 68 68 69 70 71 71 72 72 73 73 74 74 75 76 76 77 78 79 79 80 80 80 80 80 81 81 81 81 81 81 81 82 84 86 89 91 91 90 89 87
52 54 55 55 56 57 57 58 58 58 58 58 58 58 57 57 56 56 56 56 55 55 55 55 56 56 57 58 58 59 60 60 61 61 62 62 63 64 64 65 65 66 66 67 67 68 69 69 70 71 72 72 73 74 74 75 75 76 76 77 77 78 79 80 80 80 81 81 82 82 82 82 82 82 82 83 83 84 86 89 91 93 92 90 89 88 87
54 55 56 57 57 57 57 57 57 57 57 57 57 57 57 57 57 57 58 58 58 58 58 58 58 59 59 60 60 61 62 62 63 63 64 64 65 65 65 66 66 67 68 68 69 70 70 71 72 73 74 75 75 76 77 77 77 77 78 78 79 79 80 80 81 81 82 83 83 84 84 84 84 84 85 86 88 90 93 95 95 94 92 91 90 90 91
58 58 58 57 57 57 57 57 57 58 58 58 58 58 58 58 59 59 60 60 60 60 61 61 61 62 62 63 63 64 64 64 65 65 65 65 66 66 66 67 67 68 69 69 70 71 71 72 73 74 75 77 77 78 78 78 78 78 78 78 79 79 80 81 81 82 83 84 84 85 86 87 88 89 90 91 94 96 98 98 96 94 93 93 93 94 95
60 59 57 57 56 56 56 57 58 58 59 59 59 59 59 60 60 60 61 61 62 62 62 63 63 64 64 64 65 65 65 65 65 65 65 65 66 66 66 67 68 68 69 70 70 71 72 73 75 76 77 78 78 78 78 78 78 78 79 79 79 80 81 82 83 84 85 86 87 88 89 91 92 93 95 97 98 99 99 97 95 95 95 95 96 97 98
58 57 57 56 56 56 57 57 57 58 58 59 60 60 61 61 62 62 62 63 63 63 63 64 64 64 64 64 64 65 65 65 65 65 65 65 65 66 66 67 68 69 70 71 72 73 74 75 76 77 78 78 78 79 79 79 79 79 80 80 80 81 82 84 85 86 88 89 90 92 93 94 96 98 99 100 100 99 98 97 97 97 98 99 100 101 102
57 57 57 57 58 58 58 58 57 58 58 59 59 60 60 61 61 62 62 62 62 62 63 63 63 63 64 64 64 64 64 65 65 65 65 65 66 67 68 69 70 71 72 73 74 75 76 76 77 77 78 78 79 79 80 80 81 81 81 82 83 84 85 87 88 90 91 92 94 95 97 99 101 101 101 100 100 99 99 99 100 100 101 102 103 104 105
54 55 55 56 57 57 57 57 57 56 56 56 57 57 58 59 59 60 60 61 61 61 62 63 63 64 64 65 65 66 66 66 67 67 68 69 70 71 72 73 73 74 75 75 75 75 76 76 77 78 79 79 80 81 82 83 83 84 85 86 87 88 89 90 92 93 95 97 98 100 100 101 101 100 100 100 100 100 100 101 102 103 104 105 106 107 108
53 53 54 55 56 56 57 57 57 57 57 56 56 56 56 57 58 59 60 61 61 62 63 64 65 66 67 68 69 69 69 70 70 71 72 74 75 75 76 76 76 76 76 75 75 75 75 76 77 78 79 81 82 83 85 86 87 88 89 90 91 92 93 95 96 98 99 99 100 100 100 100 100 99 100 100 101 101 102 103 104 106 107 108 109 109 110
53 54 55 55 56 57 57 58 58 58 58 57 57 57 57 58 59 60 61 62 63 64 65 67 68 69 70 72 72 73 74 74 75 76 77 78 78 78 78 78 77 76 75 74 74 75 76 78 79 80 82 83 85 86 88 89 90 91 92 93 95 96 97 98 99 99 99 99 99 99 99 99 100 100 101 102 103 104 105 106 107 108 109 110 110 110 109
56 56 57 57 57 57 57 58 58 58 58 59 60 61 62 64 65 66 67 68 69 69 70 71 72 73 74 75 76 77 78 78 79 79 79 79 79 78 77 76 75 75 75 76 77 78 80 81 83 84 85 86 88 89 91 91 92 94 95 96 98 99 99 99 99 99 100 100 100 100 100 101 102 103 104 105 106 107 108 109 109 109 108 107 106 105 103
57 57 58 58 57 58 59 60 62 63 64 65 66 68 69 70 70 71 71 71 72 72 73 73 73 74 74 75 76 77 78 79 79 78 78 78 78 77 77 76 77 77 79 80 81 82 84 85 86 87 88 89 91 92 92 93 95 96 98 99 99 99 100 100 100 100 101 101 101 102 103 104 105 106 107 107 108 108 108 107 106 104 103 101 100 99 99
61 62 63 63 64 64 66 67 69 69 70 70 70 70 70 70 70 71 70 71 71 71 71 72 72 73 74 74 75 76 77 78 78 79 79 79 79 79 79 80 80 81 82 83 84 85 86 87 89 90 90 91 92 93 95 96 98 99 99 99 99 100 100 101 101 102 102 103 104 105 106 106 107 107 107 106 105 104 102 100 99 97 97 96 95 94 93
62 63 65 65 66 66 67 67 68 68 68 68 68 68 68 68 69 69 69 70 70 71 71 72 73 74 75 76 77 78 79 80 80 81 82 82 82 82 82 83 83 84 84 85 86 87 88 90 91 92 93 94 95 96 98 98 99 99 99 99 100 101 101 102 103 104 105 105 106 106 106 106 105 104 102 100 98 97 95 94 93 92 91 90 89 87 85
60 60 61 62 63 63 64 64 65 65 65 66 66 67 67 68 69 70 70 71 72 73 74 75 76 77 78 79 80 80 81 81 82 82 83 83 84 84 84 84 85 85 86 87 88 89 91 92 93 94 95 96 97 98 99 99 99 100 100 101 102 103 103 104 105 105 106 105 105 104 102 100 98 96 95 93 92 91 90 89 88 86 84 82 79 77 74
Wind_Direction
230 232 234 236 238 239 241 242 241 241 243 244 244 244 243 243 245 244 242 244 245 242 244 250 254 255 255 253 253 252 252 254 256 257 257 258 260 263 265 267 269 271 273 275 277 279 280 281 281 282 283 284 284 285 285 284 283 282 281 279 278 276 275 274 273 273 273 273 272 272 272 272 272 272 272 272 272 272 272 273 273 273 273 274 274 275 275
230 232 232 233 234 235 237 239 240 240 242 244 246 247 246 246 249 248 244 244 245 243 243 246 249 252 253 253 253 251 250 252 253 253 254 257 260 264 266 269 270 272 274 275 276 277 278 279 281 282 283 284 284 283 283 283 282 282 281 280 279 278 277 276 275 274 273 272 272 271 271 271 272 272 272 272 272 272 273 273 274 274 274 275 275 275 276
229 230 230 231 232 234 236 238 238 239 241 242 243 243 241 242 245 246 244 244 244 243 245 245 246 249 252 253 253 252 251 251 251 252 255 258 262 264 265 267 268 269 272 274 275 277 279 281 283 284 285 285 284 283 282 282 281 280 280 279 279 279 278 278 277 277 276 275 274 273 273 272 272 272 272 273 273 274 274 274 275 275 275 276 276 277 277
228 229 231 232 234 236 238 237 236 238 240 242 243 243 244 245 247 246 245 244 243 244 246 248 249 250 250 252 253 254 254 251 249 253 257 259 261 262 262 264 266 269 272 275 277 279 282 284 285 285 285 285 284 284 284 283 282 281 280 280 280 280 280 280 279 278 278 277 277 277 276 276 275 274 274 274 274 275 275 276 276 276 277 277 277 277 278
231 232 234 235 237 238 238 236 236 239 242 244 245 244 244 246 247 245 244 242 242 246 248 247 247 247 246 248 250 252 253 252 251 254 256 258 259 261 263 266 268 271 274 277 280 282 284 285 286 286 286 286 285 284 284 284 283 283 282 282 282 283 283 283 282 281 280 280 280 280 280 279 279 278 277 276 276 276 276 277 277 277 277 277 278 278 279
233 233 234 236 237 237 237 237 239 242 243 243 245 244 244 246 247 246 243 238 237 242 242 238 237 240 241 243 244 247 250 253 255 255 257 259 261 263 265 267 270 274 277 280 282 284 285 286 287 287 287 286 286 285 285 284 284 284 284 284 284 285 285 286 286 285 285 283 283 282 282 282 281 280 279 278 277 276 277 277 277 277 277 278 278 278 279
232 233 234 235 236 235 236 236 237 239 241 242 244 245 244 244 244 243 238 233 232 236 236 232 231 232 235 238 240 243 248 252 256 258 259 260 261 263 265 268 272 276 279 282 283 285 286 287 287 288 287 287 286 286 285 285 285 285 285 285 285 285 286 286 286 286 285 284 283 282 282 283 283 282 281 279 278 276 276 276 276 277 277 277 277 277 277
232 233 234 236 236 235 234 234 234 236 238 240 241 239 234 232 235 235 232 228 227 231 233 231 229 228 230 234 237 241 246 251 256 259 260 260 261 263 267 271 275 278 281 283 285 286 287 287 287 287 287 287 286 286 285 285 285 285 285 285 284 285 285 284 284 283 282 282 281 281 282 282 283 283 282 280 279 277 276 276 276 276 276 276 276 276 277
234 235 236 236 236 235 234 234 234 237 239 241 243 242 237 236 241 242 238 234 233 235 234 232 231 230 230 234 238 243 245 249 253 255 258 260 263 266 270 274 278 281 283 284 285 286 286 286 286 286 285 286 286 286 286 286 286 286 286 286 286 286 285 284 283 282 280 279 279 279 280 281 281 281 281 280 280 279 277 276 276 275 276 276 277 278 279
237 238 238 237 236 235 234 235 237 239 241 242 245 247 244 241 243 244 240 237 237 234 231 231 232 231 231 236 241 242 242 245 250 254 256 259 264 268 272 276 279 281 283 284 285 286 286 285 285 284 285 285 285 286 286 287 287 287 288 288 288 288 288 286 284 282 279 278 278 278 278 279 279 280 281 281 281 281 279 278 276 276 276 277 278 279 281
236 237 238 237 238 236 236 240 240 239 239 239 242 246 243 235 236 240 236 232 229 223 223 228 230 230 233 238 238 238 241 244 248 252 255 258 262 268 272 276 279 281 283 285 285 284 284 283 284 284 285 285 285 286 287 289 290 290 290 290 290 289 288 286 284 282 280 279 278 278 278 279 279 280 281 282 282 282 281 280 279 278 278 278 279 281 282
236 237 238 239 237 234 235 241 241 239 240 239 240 244 242 231 231 237 234 229 226 221 220 224 227 230 235 236 233 236 242 244 245 250 254 258 262 267 272 276 279 282 283 284 283 283 282 282 283 284 285 286 286 287 288 290 291 290 290 290 289 288 286 284 283 281 280 279 278 278 279 279 280 281 282 283 283 283 283 283 282 282 282 282 282 283 284
238 238 239 238 234 229 231 237 238 238 239 238 238 241 240 228 224 228 230 229 225 221 221 223 226 232 235 233 233 237 242 244 247 250 253 258 264 268 273 278 281 282 282 282 282 282 282 283 284 285 285 285 285 286 287 288 288 288 288 288 287 286 284 282 280 280 279 279 278 278 278 279 280 281 282 283 284 285 285 285 285 285 285 285 286 287 287
236 237 237 235 229 225 228 233 234 234 235 235 237 238 236 230 222 220 226 230 227 224 224 225 228 232 233 233 234 237 240 244 248 251 254 259 264 269 274 278 280 281 281 282 283 283 284 284 285 285 285 285 285 285 285 285 284 284 285 286 286 285 283 281 280 279 279 279 279 279 279 280 281 282 284 285 286 287 287 288 288 288 288 288 288 288 288
235 235 235 233 226 221 224 231 233 234 234 234 234 231 230 232 229 224 226 229 229 228 227 226 228 231 233 235 236 237 239 242 246 251 256 260 262 267 273 277 279 282 284 285 286 285 285 285 285 285 285 286 286 286 286 285 285 285 286 286 286 284 283 282 281 281 281 281 282 283 284 285 286 287 287 288 288 289 290 290 291 290 290 289 288 288 287
235 233 230 228 222 217 220 227 231 232 231 231 230 227 226 228 230 230 230 228 226 227 228 229 231 233 235 237 237 237 239 241 246 251 255 257 261 267 272 277 280 283 283 284 284 284 284 285 285 286 286 286 286 286 287 287 287 287 287 287 286 285 284 283 284 284 285 286 287 288 289 291 292 292 292 292 292 292 292 292 292 291 290 290 290 290 290
237 233 228 227 226 220 220 223 226 226 224 224 226 228 228 229 231 233 236 235 230 227 228 231 233 234 236 237 237 238 240 243 246 249 252 257 263 267 272 276 278 279 279 280 281 281 282 283 284 284 284 284 285 286 287 288 288 288 288 287 286 285 285 285 285 286 287 288 290 291 292 293 294 294 294 294 294 293 293 293 293 293 293 293 293 293 293
232 226 222 222 222 220 220 222 223 224 224 225 228 229 231 233 234 236 239 240 238 235 233 233 235 237 238 238 238 239 241 242 243 247 253 259 264 267 270 272 273 275 277 278 279 280 280 281 281 282 282 283 285 286 286 287 287 287 287 286 286 286 285 285 285 286 287 288 290 291 292 293 294 294 295 295 294 295 295 295 295 295 295 295 295 295 295
224 220 217 217 215 215 217 219 221 226 229 232 234 235 234 233 232 233 235 237 239 239 238 237 237 238 238 238 238 239 240 240 243 248 254 259 262 265 266 267 270 273 275 276 277 278 278 279 279 280 281 283 284 285 285 285 285 285 285 284 284 284 284 285 285 285 286 287 288 289 291 292 293 294 294 294 295 295 296 297 297 297 296 296 295 295 295
220 216 215 215 215 215 217 219 221 227 231 234 237 240 239 235 231 231 233 234 236 239 239 239 239 238 236 236 237 239 240 242 246 250 254 258 260 261 262 264 267 269 271 273 274 275 275 276 277 278 280 281 282 283 284 284 283 283 283 283 283 283 283 283 283 283 284 285 286 287 288 289 290 291 292 293 294 295 295 296 296 295 295 295 294 294 294
220 214 212 214 215 216 218 221 223 225 229 233 236 239 241 239 235 233 233 233 234 236 236 236 236 235 235 235 238 240 242 244 248 251 254 257 258 258 260 262 264 266 269 271 272 272 272 273 274 276 277 279 280 282 282 282 282 282 282 283 283 283 283 283 282 282 282 282 283 284 285 286 286 288 289 290 291 292 293 293 293 293 293 293 293 293 293
220 215 214 216 218 218 219 221 222 221 223 228 234 239 243 246 244 239 235 232 232 232 232 232 234 235 236 237 240 242 243 244 247 250 253 255 256 257 259 261 263 265 266 267 268 269 270 271 272 274 275 277 278 280 280 281 282 282 283 284 284 284 284 284 283 282 282 281 281 282 282 283 284 285 286 287 288 289 289 289 290 290 290 290 290 291 291
221 217 217 219 221 221 221 222 223 224 226 232 238 243 247 248 245 240 235 232 230 230 230 231 234 236 237 239 240 241 243 244 246 249 252 254 255 257 259 262 264 266 266 265 266 267 267 269 270 272 273 275 277 278 279 280 281 281 282 283 283 284 284 283 283 283 282 282 281 281 281 282 283 283 284 285 285 286 286 287 287 287 287 288 288 288 289
218 217 218 220 222 222 224 226 229 232 235 238 238 238 237 236 234 232 230 229 229 230 231 232 234 235 236 237 239 241 242 244 246 249 251 252 254 256 260 263 265 266 266 265 265 266 267 269 270 271 273 274 275 276 277 278 279 280 281 281 282 282 282 282 282 282 282 282 282 282 282 283 283 284 284 284 284 284 285 285 285 285 286 286 286 286 287
220 217 217 220 221 222 225 228 230 232 234 234 232 229 229 229 228 226 226 226 227 229 231 233 233 234 235 236 238 241 243 245 248 250 251 252 255 258 261 264 265 265 266 266 267 268 269 271 272 272 273 274 275 275 276 277 277 278 279 279 280 279 280 280 280 280 281 282 282 283 284 284 285 285 284 284 284 284 284 284 284 284 285 285 285 286 286
225 222 219 218 219 220 222 223 225 227 229 230 230 227 226 226 227 226 226 226 228 229 231 233 235 236 237 238 241 243 245 248 251 253 253 254 257 261 263 264 264 264 266 267 269 269 270 271 272 272 273 273 274 274 274 275 276 277 278 278 279 279 280 281 281 281 282 283 283 284 285 285 285 285 285 285 284 284 284 284 284 284 284 285 285 285 285
225 226 223 220 219 220 221 222 224 227 229 230 230 229 227 227 227 227 227 228 230 232 233 235 237 239 241 243 245 247 250 253 256 257 257 258 259 261 262 263 263 263 265 266 268 269 270 272 272 272 273 273 273 274 274 275 276 277 278 279 280 281 281 282 282 283 283 284 284 285 285 285 285 285 285 285 286 285 285 285 285 285 285 285 285 285 285
225 227 226 222 219 219 221 223 224 227 230 231 232 231 230 229 229 229 229 230 231 233 236 237 239 241 244 246 248 251 253 256 257 258 258 258 259 261 262 264 264 265 265 266 268 269 271 272 273 274 274 274 275 275 275 276 277 277 278 279 280 281 281 282 283 284 284 285 285 285 285 286 286 286 286 286 286 286 286 285 285 286 286 286 287 287 287
224 227 228 226 222 221 222 224 225 227 229 231 232 232 231 231 230 231 232 233 234 235 237 240 242 244 245 247 249 251 253 255 257 258 259 260 262 264 265 266 266 266 267 268 269 270 271 271 273 273 274 275 275 276 276 277 278 279 279 280 280 281 282 282 283 284 285 285 286 286 286 287 287 287 287 286 286 286 286 286 286 287 287 288 288 289 289
225 226 227 228 227 226 226 227 228 229 231 232 233 233 233 232 232 231 232 234 235 237 239 241 243 245 247 248 251 253 255 258 260 261 263 265 266 267 267 267 267 268 268 269 270 270 271 272 272 273 274 274 275 276 276 277 278 279 279 280 280 281 282 283 283 284 284 285 285 286 286 286 286 286 286 286 287 287 287 287 288 288 288 289 289 290 290
226 226 227 228 230 231 232 232 232 233 234 235 236 236 236 236 235 235 234 235 237 238 240 242 244 246 248 251 254 256 258 260 261 263 264 266 267 267 268 268 268 269 269 270 271 271 272 272 273 274 274 275 275 276 276 276 277 278 278 279 280 281 281 282 282 283 283 284 284 284 284 285 285 286 286 286 287 287 288 288 288 289 289 289 290 290 290
226 227 228 229 231 233 235 235 236 236 237 238 238 239 240 240 240 239 239 239 240 241 243 244 246 249 251 253 255 257 258 260 261 262 263 265 266 267 267 267 268 269 270 271 272 272 273 274 275 276 276 276 276 276 276 277 278 278 278 279 280 280 280 281 281 281 282 282 283 283 284 284 285 285 285 286 286 287 287 288 288 289 289 289 290 290 291
227 228 229 230 231 234 236 237 239 239 239 240 241 241 241 242 242 242 242 242 242 244 245 246 248 250 251 253 255 256 257 259 260 262 263 265 266 266 267 267 268 269 270 271 272 273 274 275 276 277 277 277 277 277 278 278 279 279 279 279 280 280 280 280 281 281 282 282 283 283 284 284 284 284 285 285 286 286 287 287 288 288 289 289 290 291 291
226 227 229 231 232 234 236 238 240 240 241 241 242 242 242 242 242 242 242 243 243 244 245 247 248 249 251 252 253 255 256 258 259 261 263 264 265 266 267 267 268 269 270 271 272 273 274 275 276 276 277 277 278 278 278 278 279 279 279 280 280 280 281 281 282 282 283 283 283 283 283 284 284 284 285 285 286 286 287 287 288 289 289 290 291 292 293
227 228 231 234 236 238 239 240 241 241 241 241 241 241 241 242 242 242 242 242 242 243 244 245 246 248 249 251 252 253 255 257 258 260 262 263 264 265 266 267 268 268 269 270 271 272 272 273 274 275 275 276 277 277 277 278 278 279 279 279 280 280 281 281 282 282 282 283 283 284 284 285 285 285 286 286 287 287 288 289 289 290 290 291 293 294 296
230 232 234 237 239 240 240 240 241 241 242 241 241 240 240 240 240 240 240 240 241 242 243 244 246 247 249 250 252 253 255 256 258 260 261 263 264 265 266 266 267 267 268 268 269 270 271 271 272 273 274 275 275 276 277 277 277 278 278 279 279 280 280 281 281 282 283 284 284 284 285 286 286 287 287 288 288 289 289 290 290 291 292 293 294 296 296
229 232 234 235 237 238 238 238 239 240 240 240 240 240 240 240 240 240 240 241 242 243 244 246 247 248 250 251 253 254 256 258 259 261 262 263 264 265 265 266 266 266 267 268 269 270 271 272 273 274 274 275 275 276 276 277 277 277 278 279 279 280 281 282 282 283 284 284 284 285 286 287 287 288 288 289 289 289 290 291 292 293 294 294 295 295 295
228 230 232 233 234 235 236 237 237 238 239 239 240 240 240 240 240 241 241 242 243 245 246 248 249 250 252 253 254 256 257 258 260 261 262 263 264 264 265 265 266 267 268 269 271 272 273 274 274 274 275 275 275 276 276 277 277 278 279 280 281 281 282 282 283 283 284 284 285 286 287 287 288 289 289 289 289 289 290 291 292 293 294 294 294 293 292
228 229 231 232 233 234 235 236 236 237 238 239 239 240 241 241 242 242 243 244 245 247 248 250 251 252 253 254 255 256 258 259 260 261 262 263 264 265 266 266 267 268 269 270 272 272 273 274 274 275 275 275 276 276 277 277 278 279 280 280 281 281 282 282 282 283 284 285 286 287 287 288 288 289 289 289 289 290 291 292 293 294 294 293 292 292 291
231 230 230 231 232 232 233 234 235 236 237 239 240 241 242 243 243 244 245 246 248 249 251 252 253 254 255 256 257 258 259 260 261 262 263 264 265 266 266 267 268 269 270 271 271 272 273 274 274 275 275 276 276 276 277 277 278 279 279 280 281 281 282 282 283 284 285 286 286 287 287 288 288 289 289 290 290 291 292 293 294 293 293 292 292 292 291
230 229 230 231 231 232 232 233 234 235 237 238 240 241 242 243 244 246 247 248 250 251 253 254 255 256 257 257 258 259 260 261 261 262 263 264 265 266 267 268 269 269 270 271 271 272 272 273 273 274 274 275 276 276 277 278 278 279 280 281 282 282 283 283 284 284 285 285 286 287 287 288 288 289 289 290 290 292 293 293 293 292 292 292 292 292 292
229 230 231 232 233 233 234 234 235 236 238 239 241 242 243 245 246 247 248 250 251 252 253 254 255 256 257 258 258 259 260 261 262 263 264 265 266 267 268 269 269 270 271 271 272 272 273 273 274 274 275 275 276 277 278 278 279 280 281 281 282 282 282 283 283 284 284 285 285 286 286 287 288 288 289 290 291 291 292 292 292 292 292 292 292 292 293
231 233 234 234 235 236 237 237 238 239 239 241 242 243 244 245 246 247 249 250 251 253 254 255 256 257 258 259 260 261 261 262 263 264 265 266 266 267 268 269 270 271 271 272 273 273 274 274 274 274 275 275 276 277 277 278 279 280 280 281 281 282 282 283 283 283 283 284 284 285 285 286 287 288 289 290 290 291 291 291 292 292 293 293 294 294 294
233 235 236 237 238 239 240 241 241 242 242 243 244 245 246 247 248 249 250 251 252 254 255 256 257 258 259 260 261 262 263 263 264 264 265 265 266 268 269 270 271 272 272 273 274 274 275 275 275 275 276 277 277 278 279 279 280 280 281 281 281 281 281 281 281 281 282 282 283 284 285 286 287 288 289 289 290 290 291 292 292 293 294 294 294 295 295
234 236 237 238 240 241 242 243 244 244 245 246 247 248 249 250 251 252 253 254 255 256 256 257 258 259 260 261 261 262 263 263 264 264 264 265 267 269 270 271 272 273 273 274 274 275 275 275 276 276 277 278 278 279 279 279 279 279 279 279 279 279 279 279 280 281 282 283 284 285 286 286 287 288 288 289 290 291 292 292 293 294 294 294 294 294 294
238 239 240 241 242 243 245 246 246 247 248 249 249 250 251 252 252 253 254 254 255 256 256 257 258 259 260 261 261 262 263 264 264 264 265 266 268 270 271 272 272 273 273 274 274 274 274 274 274 275 275 276 276 276 276 276 276 276 276 276 277 278 279 281 282 283 284 284 285 286 286 287 288 288 289 290 291 292 292 293 293 294 294 294 294 294 294
242 243 243 244 245 245 246 247 248 249 250 251 252 253 254 254 255 255 256 256 257 257 258 258 259 260 261 261 262 263 264 264 265 265 266 268 269 270 271 272 273 273 274 273 273 272 271 271 272 272 273 273 273 273 273 274 274 275 276 277 279 280 282 283 284 284 285 285 286 287 287 288 289 290 291 292 292 292 293 293 293 293 294 294 294 294 294
244 245 245 246 246 247 247 248 249 250 252 253 254 255 256 256 256 255 256 256 256 256 257 257 258 258 259 260 261 262 263 264 265 266 268 269 270 271 272 272 272 271 270 269 268 267 267 267 268 269 270 270 270 271 272 273 274 276 278 280 281 282 283 284 284 285 286 287 288 288 289 290 290 291 292 292 292 292 293 293 293 293 293 293 293 293 293
245 245 245 245 246 246 248 248 249 249 250 251 251 252 252 252 252 252 253 253 253 254 254 255 256 257 258 259 260 262 263 265 266 268 269 270 270 271 271 270 268 267 266 265 264 264 264 265 266 267 268 269 270 271 273 275 277 279 280 281 282 283 283 284 285 286 287 288 288 289 290 290 291 291 291 291 291 292 292 292 292 292 292 292 292 292 292
244 244 243 243 243 244 245 246 246 246 247 247 248 249 249 250 250 251 252 252 253 254 255 256 257 259 260 261 263 264 266 267 268 269 270 270 270 269 268 267 265 264 263 263 262 262 263 264 266 267 269 270 272 274 276 278 279 280 281 282 282 283 284 285 286 287 287 288 289 289 290 290 290 290 290 290 290 290 291 291 291 291 291 292 292 293 293
241 241 241 241 241 241 242 243 243 244 245 246 246 247 248 249 250 252 253 254 255 257 258 260 261 262 263 264 265 266 267 268 268 269 268 268 267 266 265 264 263 262 262 262 263 264 265 267 268 270 272 273 275 276 278 279 280 281 281 282 283 284 285 286 286 287 288 288 288 289 289 289 289 289 289 290 290 290 290 291 291 291 292 293 293 294 294
238 238 239 239 239 240 241 242 243 244 245 246 248 249 251 252 254 256 257 258 259 261 262 263 263 264 265 265 266 266 266 266 266 266 265 265 264 263 263 262 262 263 263 264 265 267 268 270 271 273 274 275 277 278 279 280 280 281 282 283 284 285 286 286 287 287 287 288 288 288 288 288 288 289 289 289 290 290 291 291 292 293 293 294 295 295 296
Height
5656 5659 5663 5667 5671 5676 5680 5682 5684 5688 5689 5688 5689 5693 5701 5706 5701 5704 5721 5726 5725 5735 5740 5735 5734 5738 5740 5743 5744 5744 5745 5745 5746 5747 5749 5752 5755 5757 5760 5761 5761 5762 5762 5762 5763 5763 5764 5764 5764 5765 5765 5766 5766 5765 5765 5765 5764 5764 5764 5763 5762 5762 5761 5760 5758 5757 5756 5756 5755 5754 5754 5753 5753 5752 5752 5751 5750 5750 5749 5748 5747 5746 5745 5744 5743 5742 5740
5650 5653 5656 5661 5665 5668 5670 5673 5677 5681 5682 5684 5687 5692 5698 5701 5698 5707 5720 5720 5721 5731 5732 5729 5730 5730 5733 5737 5737 5737 5739 5740 5740 5741 5743 5748 5751 5753 5756 5756 5755 5756 5756 5757 5757 5758 5759 5759 5759 5760 5760 5760 5760 5760 5759 5759 5758 5758 5757 5756 5756 5755 5754 5753 5752 5751 5750 5749 5748 5748 5747 5746 5746 5745 5745 5744 5743 5743 5742 5741 5740 5739 5738 5737 5736 5735 5733
5644 5646 5650 5656 5658 5660 5663 5666 5670 5673 5675 5678 5681 5685 5691 5694 5695 5706 5713 5711 5716 5724 5722 5721 5725 5725 5728 5731 5730 5732 5735 5734 5733 5734 5739 5744 5747 5749 5750 5749 5749 5750 5750 5751 5752 5752 5753 5754 5754 5754 5754 5754 5754 5753 5753 5753 5752 5752 5751 5750 5749 5748 5747 5747 5746 5745 5744 5743 5742 5741 5740 5739 5738 5738 5737 5737 5736 5736 5735 5734 5733 5732 5731 5730 5729 5727 5726
5636 5642 5647 5650 5653 5656 5656 5657 5662 5666 5669 5673 5677 5683 5689 5690 5694 5701 5703 5702 5713 5720 5716 5717 5722 5723 5724 5724 5724 5727 5727 5724 5725 5730 5735 5739 5741 5743 5743 5742 5742 5744 5745 5746 5746 5747 5748 5748 5748 5748 5748 5748 5747 5747 5746 5746 5746 5746 5745 5744 5743 5742 5741 5740 5739 5738 5737 5736 5735 5734 5733 5732 5731 5731 5730 5729 5729 5728 5728 5727 5726 5725 5724 5723 5722 5720 5719
5635 5640 5641 5645 5649 5645 5642 5649 5659 5665 5668 5673 5677 5681 5685 5686 5689 5692 5694 5701 5712 5714 5711 5714 5717 5716 5717 5719 5719 5720 5717 5715 5719 5726 5731 5733 5735 5735 5735 5735 5737 5739 5740 5740 5741 5741 5742 5742 5742 5741 5741 5741 5740 5740 5740 5739 5739 5739 5738 5737 5736 5735 5735 5734 5733 5732 5731 5730 5729 5728 5727 5726 5725 5724 5724 5723 5722 5721 5720 5719 5718 5718 5717 5716 5715 5713 5712
5630 5633 5636 5640 5634 5628 5636 5654 5663 5664 5667 5670 5672 5676 5680 5681 5682 5685 5691 5699 5704 5703 5704 5708 5709 5708 5711 5712 5712 5712 5710 5708 5713 5720 5725 5727 5728 5729 5728 5730 5732 5733 5734 5735 5735 5735 5735 5735 5736 5735 5735 5734 5734 5733 5733 5733 5733 5732 5732 5731 5730 5729 5728 5727 5727 5726 5725 5724 5723 5722 5721 5720 5719 5718 5717 5716 5715 5714 5713 5712 5711 5711 5710 5709 5708 5707 5706
5622 5626 5629 5625 5619 5627 5645 5655 5656 5657 5662 5665 5667 5670 5674 5675 5677 5682 5687 5693 5696 5696 5697 5700 5701 5703 5704 5704 5705 5707 5706 5705 5709 5716 5719 5721 5722 5722 5723 5725 5727 5728 5729 5729 5728 5729 5729 5729 5730 5729 5729 5728 5727 5727 5727 5727 5726 5726 5725 5725 5724 5723 5722 5721 5720 5720 5718 5718 5716 5715 5714 5713 5712 5712 5710 5709 5708 5707 5707 5706 5705 5704 5703 5703 5701 5700 5699
5615 5617 5615 5614 5621 5634 5641 5641 5644 5650 5655 5658 5661 5662 5665 5669 5671 5674 5679 5683 5687 5688 5690 5693 5695 5696 5696 5698 5701 5703 5702 5703 5706 5711 5713 5713 5715 5717 5718 5720 5721 5722 5723 5722 5723 5723 5723 5723 5723 5723 5722 5722 5721 5721 5721 5721 5721 5720 5720 5719 5718 5717 5716 5715 5714 5713 5712 5711 5710 5709 5708 5706 5705 5704 5703 5702 5701 5700 5700 5699 5698 5697 5696 5695 5694 5693 5692
5608 5609 5610 5616 5624 5626 5626 5631 5640 5647 5652 5658 5659 5658 5662 5667 5667 5668 5673 5678 5681 5685 5688 5689 5690 5690 5691 5694 5698 5699 5699 5701 5703 5705 5706 5708 5710 5712 5713 5714 5716 5716 5716 5716 5716 5716 5716 5716 5716 5716 5716 5716 5716 5716 5715 5715 5715 5714 5714 5713 5712 5711 5710 5708 5708 5707 5706 5705 5704 5702 5701 5700 5699 5697 5696 5695 5694 5693 5693 5692 5691 5690 5689 5688 5687 5686 5686
5603 5605 5607 5612 5613 5615 5623 5634 5641 5647 5652 5655 5654 5651 5654 5660 5662 5664 5670 5675 5678 5682 5683 5683 5684 5685 5686 5691 5696 5696 5696 5698 5699 5700 5702 5703 5705 5707 5707 5709 5710 5710 5710 5710 5710 5710 5710 5709 5709 5709 5710 5710 5711 5711 5710 5710 5710 5709 5708 5707 5706 5705 5703 5702 5701 5700 5699 5698 5697 5696 5695 5693 5692 5691 5690 5689 5688 5687 5686 5685 5684 5683 5683 5682 5681 5680 5679
5596 5599 5602 5605 5608 5617 5628 5634 5638 5642 5644 5647 5646 5642 5644 5653 5659 5661 5664 5669 5671 5673 5675 5676 5678 5679 5683 5691 5693 5691 5692 5695 5696 5696 5697 5699 5701 5703 5703 5704 5704 5704 5705 5704 5704 5704 5704 5703 5703 5704 5704 5704 5705 5705 5705 5704 5703 5703 5702 5701 5700 5699 5697 5695 5694 5693 5692 5691 5690 5689 5688 5687 5686 5685 5684 5683 5681 5680 5679 5678 5678 5677 5676 5675 5674 5673 5672
5590 5595 5598 5602 5608 5618 5625 5628 5632 5635 5637 5641 5640 5635 5641 5655 5659 5657 5661 5665 5665 5667 5668 5669 5670 5674 5681 5688 5688 5686 5688 5691 5690 5691 5693 5695 5697 5698 5699 5699 5699 5699 5699 5699 5699 5699 5698 5698 5698 5698 5698 5699 5699 5699 5699 5698 5697 5696 5695 5694 5694 5692 5691 5689 5687 5686 5685 5684 5683 5682 5681 5680 5679 5678 5677 5676 5675 5674 5673 5672 5671 5670 5669 5668 5667 5666 5665
5587 5591 5595 5599 5606 5615 5620 5623 5625 5627 5629 5631 5630 5633 5645 5654 5654 5654 5657 5659 5660 5662 5662 5663 5667 5673 5678 5681 5681 5682 5684 5684 5684 5687 5689 5691 5692 5693 5693 5694 5694 5693 5693 5693 5693 5693 5693 5693 5693 5693 5693 5693 5693 5693 5693 5692 5690 5689 5688 5687 5686 5685 5684 5683 5681 5679 5678 5677 5676 5675 5674 5673 5672 5670 5669 5668 5667 5667 5666 5665 5664 5663 5662 5661 5660 5659 5658
5582 5587 5591 5595 5601 5609 5614 5616 5617 5619 5620 5621 5626 5637 5645 5645 5647 5652 5653 5652 5655 5658 5658 5660 5665 5670 5672 5674 5677 5678 5678 5679 5680 5682 5684 5685 5686 5687 5688 5688 5688 5688 5688 5688 5688 5688 5688 5688 5687 5687 5687 5687 5686 5686 5685 5685 5684 5683 5681 5681 5680 5679 5678 5676 5675 5673 5672 5671 5670 5669 5667 5667 5666 5664 5663 5662 5661 5660 5659 5658 5657 5656 5655 5653 5652 5651 5650
5579 5581 5584 5589 5596 5605 5609 5609 5611 5614 5618 5622 5628 5635 5637 5638 5643 5646 5646 5647 5650 5652 5655 5659 5662 5665 5667 5669 5671 5673 5673 5675 5676 5676 5678 5679 5680 5681 5682 5682 5682 5683 5683 5682 5682 5682 5682 5682 5682 5681 5681 5680 5680 5679 5679 5678 5678 5677 5676 5675 5674 5673 5672 5671 5669 5668 5667 5666 5664 5663 5662 5661 5660 5659 5658 5657 5655 5654 5653 5652 5651 5650 5648 5647 5646 5645 5644
5573 5575 5580 5588 5595 5601 5604 5604 5607 5611 5616 5620 5623 5626 5630 5633 5636 5636 5638 5642 5645 5648 5652 5655 5657 5660 5662 5663 5666 5668 5668 5670 5671 5671 5672 5673 5673 5675 5675 5676 5677 5677 5677 5677 5677 5676 5676 5675 5675 5675 5675 5675 5674 5674 5673 5673 5672 5671 5670 5669 5668 5668 5667 5666 5665 5663 5662 5661 5660 5658 5657 5656 5655 5654 5652 5651 5650 5648 5647 5646 5645 5643 5642 5641 5640 5639 5638
5569 5574 5582 5588 5592 5595 5598 5600 5603 5607 5611 5614 5617 5621 5625 5628 5630 5631 5632 5636 5641 5645 5648 5650 5652 5655 5656 5658 5660 5662 5663 5665 5665 5665 5666 5667 5667 5668 5669 5670 5670 5670 5670 5671 5670 5670 5670 5669 5669 5669 5669 5668 5668 5668 5667 5667 5666 5665 5664 5664 5663 5662 5661 5660 5659 5658 5657 5656 5655 5653 5652 5651 5650 5648 5647 5646 5645 5643 5642 5641 5639 5638 5637 5635 5634 5633 5632
5565 5570 5576 5581 5585 5588 5593 5598 5601 5604 5607 5610 5612 5617 5620 5622 5625 5627 5628 5631 5636 5640 5642 5646 5648 5650 5651 5654 5655 5656 5657 5658 5658 5659 5660 5661 5661 5662 5663 5663 5663 5664 5664 5664 5664 5664 5664 5663 5663 5663 5662 5662 5662 5661 5661 5661 5660 5659 5659 5658 5657 5656 5655 5655 5654 5652 5651 5650 5649 5648 5647 5646 5645 5644 5642 5641 5640 5638 5637 5636 5634 5633 5632 5630 5629 5627 5626
5558 5564 5571 5576 5579 5582 5587 5592 5597 5600 5603 5605 5607 5610 5613 5616 5618 5620 5622 5625 5628 5632 5636 5640 5642 5644 5647 5647 5647 5648 5649 5650 5652 5654 5655 5655 5656 5656 5656 5656 5657 5657 5658 5658 5658 5658 5658 5657 5657 5657 5656 5656 5656 5655 5654 5654 5653 5653 5652 5652 5651 5650 5649 5648 5647 5646 5645 5644 5643 5642 5641 5640 5639 5638 5637 5636 5634 5633 5632 5631 5629 5627 5626 5624 5623 5621 5620
5555 5562 5568 5571 5573 5577 5582 5587 5591 5594 5596 5599 5601 5602 5605 5609 5612 5613 5616 5619 5622 5626 5629 5632 5635 5638 5639 5639 5639 5641 5642 5644 5647 5648 5648 5648 5649 5650 5650 5650 5651 5651 5652 5652 5652 5651 5651 5651 5651 5650 5650 5650 5649 5649 5648 5648 5647 5646 5646 5645 5644 5643 5642 5641 5640 5640 5639 5637 5637 5636 5635 5634 5633 5632 5631 5630 5628 5627 5626 5625 5623 5622 5620 5618 5617 5616 5614
5550 5556 5561 5564 5568 5573 5577 5580 5585 5587 5589 5591 5593 5594 5597 5603 5607 5610 5612 5615 5618 5620 5622 5624 5627 5629 5630 5632 5634 5636 5637 5639 5640 5640 5640 5642 5642 5643 5644 5644 5644 5645 5645 5645 5645 5645 5644 5644 5644 5643 5643 5643 5643 5642 5642 5641 5641 5640 5639 5638 5637 5636 5635 5635 5634 5633 5632 5631 5630 5629 5628 5627 5626 5625 5624 5623 5622 5621 5620 5619 5617 5615 5614 5612 5610 5609 5608
5547 5555 5561 5563 5566 5569 5572 5574 5576 5579 5581 5583 5587 5590 5594 5598 5603 5606 5608 5610 5612 5613 5615 5616 5618 5620 5623 5626 5629 5630 5631 5632 5632 5632 5633 5635 5636 5637 5637 5637 5638 5638 5638 5638 5638 5638 5637 5637 5637 5636 5636 5636 5636 5636 5635 5635 5634 5633 5632 5632 5631 5630 5629 5628 5627 5627 5626 5625 5624 5623 5621 5620 5619 5618 5617 5616 5615 5613 5612 5611 5610 5608 5607 5605 5603 5602 5601
5549 5555 5557 5559 5561 5565 5568 5570 5571 5574 5577 5581 5585 5589 5592 5594 5597 5600 5602 5604 5605 5607 5608 5610 5612 5614 5617 5620 5621 5622 5623 5623 5624 5625 5627 5628 5630 5630 5631 5631 5632 5632 5631 5631 5630 5630 5630 5630 5629 5629 5629 5629 5629 5628 5628 5628 5627 5626 5626 5625 5624 5623 5622 5621 5620 5620 5619 5618 5617 5616 5615 5614 5612 5611 5610 5608 5607 5606 5604 5603 5602 5601 5599 5598 5596 5595 5593
5542 5545 5548 5551 5555 5558 5562 5564 5566 5569 5572 5576 5580 5583 5584 5586 5589 5592 5595 5597 5599 5601 5603 5604 5606 5608 5610 5612 5613 5613 5614 5616 5618 5619 5620 5622 5623 5623 5624 5625 5625 5625 5625 5624 5623 5623 5623 5623 5622 5622 5622 5622 5622 5621 5621 5620 5620 5619 5618 5618 5617 5616 5615 5614 5614 5613 5612 5611 5610 5609 5608 5607 5605 5604 5603 5601 5600 5599 5597 5596 5594 5593 5591 5590 5588 5587 5586
5534 5537 5541 5544 5546 5550 5553 5555 5558 5561 5564 5567 5572 5574 5576 5579 5582 5584 5587 5589 5591 5593 5596 5598 5599 5600 5602 5603 5604 5606 5608 5610 5611 5612 5615 5616 5617 5617 5618 5618 5618 5618 5617 5617 5617 5617 5617 5616 5616 5616 5615 5615 5615 5614 5613 5613 5612 5612 5611 5610 5610 5609 5608 5607 5607 5606 5605 5604 5603 5602 5601 5599 5598 5597 5596 5594 5593 5592 5590 5589 5587 5585 5584 5582 5581 5579 5577
5527 5531 5533 5535 5538 5541 5544 5547 5551 5555 5557 5560 5563 5566 5568 5571 5573 5576 5579 5581 5583 5586 5588 5590 5592 5593 5595 5596 5598 5600 5602 5603 5605 5607 5609 5610 5610 5611 5611 5611 5611 5611 5610 5610 5610 5610 5609 5609 5609 5609 5608 5608 5608 5607 5606 5606 5605 5605 5604 5603 5603 5602 5601 5601 5600 5599 5598 5597 5596 5595 5594 5593 5591 5590 5589 5588 5587 5585 5583 5582 5580 5578 5577 5575 5573 5571 5569
5522 5525 5527 5529 5533 5537 5540 5544 5548 5550 5551 5553 5556 5559 5561 5564 5567 5570 5572 5575 5577 5579 5581 5583 5585 5587 5589 5591 5593 5594 5596 5598 5599 5601 5602 5602 5603 5604 5603 5603 5604 5603 5603 5603 5603 5602 5602 5602 5602 5601 5601 5601 5600 5600 5600 5599 5599 5598 5597 5597 5596 5595 5595 5594 5593 5592 5591 5590 5589 5588 5587 5585 5584 5583 5582 5581 5579 5578 5576 5575 5573 5571 5569 5567 5565 5563 5561
5518 5520 5522 5525 5529 5533 5536 5539 5541 5542 5544 5547 5550 5553 5555 5558 5562 5564 5566 5568 5571 5573 5575 5577 5579 5581 5583 5585 5587 5589 5590 5591 5592 5593 5594 5594 5595 5596 5596 5597 5596 5596 5596 5596 5595 5595 5595 5595 5594 5594 5594 5593 5593 5593 5592 5592 5592 5591 5590 5590 5589 5588 5587 5587 5586 5585 5584 5583 5582 5581 5579 5578 5577 5576 5574 5573 5571 5570 5568 5566 5565 5563 5561 5558 5556 5554 5552
5513 5516 5519 5522 5525 5528 5529 5531 5533 5536 5538 5540 5544 5547 5549 5552 5556 5558 5561 5563 5565 5567 5569 5572 5574 5576 5577 5579 5580 5581 5582 5584 5585 5586 5586 5587 5588 5588 5589 5590 5589 5589 5590 5589 5589 5589 5588 5588 5588 5587 5587 5586 5586 5585 5585 5585 5584 5583 5583 5583 5582 5581 5580 5579 5578 5578 5577 5576 5575 5573 5572 5571 5569 5568 5566 5564 5563 5561 5559 5557 5556 5554 5551 5549 5548 5545 5543
5508 5511 5515 5517 5520 5522 5524 5526 5529 5531 5532 5535 5538 5541 5543 5547 5550 5553 5556 5558 5560 5562 5564 5566 5567 5569 5570 5571 5573 5574 5575 5577 5578 5579 5580 5581 5581 5581 5582 5582 5582 5582 5582 5582 5582 5582 5581 5581 5581 5580 5580 5579 5579 5578 5577 5577 5576 5575 5575 5574 5573 5573 5572 5571 5570 5570 5568 5567 5566 5565 5563 5562 5560 5559 5557 5555 5553 5552 5550 5548 5546 5544 5542 5540 5538 5536 5534
5503 5506 5509 5512 5514 5517 5519 5522 5524 5526 5528 5530 5533 5535 5539 5542 5545 5548 5551 5553 5555 5556 5558 5559 5561 5562 5563 5565 5566 5567 5569 5570 5571 5572 5573 5573 5573 5574 5574 5574 5574 5574 5574 5574 5574 5574 5574 5574 5573 5573 5572 5572 5571 5570 5570 5569 5568 5567 5567 5566 5565 5564 5563 5562 5562 5560 5559 5558 5557 5555 5554 5553 5551 5550 5548 5546 5544 5543 5541 5539 5537 5535 5533 5531 5528 5527 5525
5497 5501 5504 5507 5509 5511 5514 5517 5519 5521 5523 5525 5527 5531 5534 5537 5540 5543 5545 5547 5548 5550 5552 5553 5555 5556 5557 5558 5559 5560 5561 5562 5563 5564 5564 5565 5565 5565 5566 5566 5566 5566 5565 5565 5565 5565 5565 5565 5565 5565 5564 5563 5563 5562 5561 5560 5559 5559 5558 5557 5556 5555 5554 5553 5552 5551 5550 5549 5547 5546 5545 5544 5542 5541 5539 5537 5535 5534 5532 5530 5528 5525 5523 5521 5518 5516 5514
5491 5495 5499 5501 5504 5506 5508 5511 5513 5515 5517 5520 5523 5525 5528 5531 5533 5536 5537 5539 5541 5543 5545 5546 5547 5549 5550 5551 5552 5553 5553 5554 5554 5555 5555 5556 5557 5557 5557 5557 5557 5557 5557 5557 5557 5557 5556 5556 5556 5556 5555 5554 5554 5553 5552 5551 5551 5550 5549 5548 5547 5546 5545 5544 5542 5541 5540 5539 5538 5537 5536 5534 5533 5531 5529 5528 5526 5524 5522 5520 5518 5516 5513 5510 5508 5506 5504
5485 5489 5492 5495 5497 5500 5502 5504 5507 5509 5512 5514 5517 5519 5522 5524 5526 5528 5530 5532 5534 5536 5537 5539 5540 5541 5542 5543 5543 5544 5545 5545 5546 5546 5547 5547 5548 5548 5548 5549 5549 5549 5549 5549 5548 5548 5548 5547 5547 5547 5546 5546 5545 5544 5543 5542 5541 5540 5539 5538 5537 5536 5535 5534 5532 5531 5530 5529 5527 5526 5525 5523 5522 5521 5519 5517 5516 5514 5511 5509 5507 5505 5502 5500 5497 5494 5492
5479 5482 5485 5488 5491 5493 5496 5498 5500 5503 5505 5507 5509 5512 5514 5516 5519 5521 5522 5524 5526 5527 5529 5530 5531 5533 5534 5534 5535 5535 5536 5536 5537 5537 5538 5538 5539 5539 5540 5540 5540 5540 5540 5540 5539 5539 5539 5538 5538 5538 5537 5536 5536 5535 5534 5533 5532 5531 5530 5528 5527 5526 5525 5524 5522 5521 5520 5518 5517 5516 5514 5513 5512 5510 5508 5506 5504 5502 5500 5498 5496 5494 5491 5488 5485 5483 5480
5473 5475 5478 5480 5483 5486 5488 5491 5493 5496 5498 5500 5502 5505 5507 5509 5511 5513 5514 5516 5518 5519 5521 5522 5523 5524 5525 5525 5526 5526 5527 5527 5528 5528 5529 5529 5530 5530 5530 5530 5530 5531 5530 5530 5530 5530 5529 5529 5529 5528 5527 5527 5526 5525 5524 5523 5522 5521 5520 5518 5517 5516 5515 5514 5513 5511 5509 5508 5507 5505 5504 5502 5500 5499 5497 5495 5493 5491 5489 5486 5484 5482 5480 5477 5474 5471 5467
5467 5469 5471 5473 5476 5479 5481 5484 5486 5489 5491 5493 5495 5498 5500 5501 5503 5505 5506 5508 5510 5511 5512 5514 5515 5515 5516 5517 5517 5518 5518 5519 5519 5519 5520 5520 5520 5521 5521 5521 5521 5521 5521 5520 5520 5520 5520 5519 5519 5518 5518 5517 5516 5515 5514 5513 5512 5511 5510 5509 5508 5507 5505 5504 5503 5501 5499 5498 5496 5494 5493 5491 5489 5488 5486 5484 5482 5480 5477 5475 5473 5470 5467 5465 5462 5459 5456
5460 5463 5465 5467 5469 5472 5474 5477 5479 5481 5484 5486 5488 5490 5492 5493 5495 5497 5499 5500 5502 5503 5504 5505 5506 5507 5508 5508 5509 5509 5509 5510 5510 5510 5511 5511 5511 5511 5511 5511 5511 5511 5511 5511 5511 5511 5510 5510 5509 5509 5508 5507 5506 5505 5505 5504 5502 5501 5500 5499 5498 5496 5495 5494 5492 5490 5489 5487 5485 5484 5482 5480 5478 5477 5474 5472 5470 5468 5466 5463 5461 5458 5455 5453 5450 5447 5444
5454 5457 5459 5461 5463 5465 5467 5470 5472 5474 5477 5479 5481 5483 5484 5486 5487 5489 5491 5492 5494 5495 5496 5497 5498 5498 5499 5499 5500 5500 5500 5501 5501 5501 5501 5502 5502 5502 5502 5502 5502 5502 5502 5501 5501 5501 5500 5500 5500 5499 5498 5497 5497 5496 5495 5493 5492 5491 5490 5488 5487 5486 5484 5483 5481 5479 5478 5476 5474 5472 5471 5469 5467 5465 5462 5460 5458 5456 5453 5451 5448 5445 5443 5440 5437 5434 5432
5448 5450 5453 5455 5456 5458 5460 5463 5465 5467 5469 5471 5473 5475 5477 5478 5480 5481 5483 5484 5485 5487 5487 5488 5489 5490 5490 5491 5491 5491 5491 5492 5492 5492 5492 5492 5492 5492 5492 5492 5493 5492 5492 5492 5491 5491 5491 5490 5490 5489 5488 5487 5486 5485 5484 5483 5482 5481 5479 5478 5476 5475 5473 5472 5470 5468 5466 5464 5462 5460 5458 5456 5454 5452 5450 5448 5445 5443 5440 5437 5434 5432 5429 5426 5423 5421 5419
5441 5443 5445 5447 5449 5451 5453 5455 5457 5459 5462 5464 5466 5467 5469 5470 5472 5473 5474 5476 5477 5478 5479 5480 5481 5481 5482 5482 5482 5482 5483 5483 5482 5482 5483 5483 5483 5483 5483 5482 5483 5483 5482 5482 5482 5481 5481 5480 5479 5478 5477 5477 5476 5475 5474 5473 5471 5470 5468 5467 5465 5463 5462 5460 5458 5456 5455 5453 5450 5448 5446 5444 5442 5439 5437 5435 5432 5429 5427 5424 5421 5418 5416 5413 5410 5408 5405
5435 5436 5438 5440 5442 5443 5445 5447 5449 5452 5454 5456 5458 5459 5461 5462 5463 5465 5466 5467 5469 5470 5471 5471 5472 5473 5473 5473 5473 5473 5473 5473 5473 5473 5473 5473 5473 5473 5472 5472 5472 5473 5472 5472 5471 5471 5470 5469 5468 5467 5466 5466 5465 5464 5462 5461 5460 5458 5457 5455 5453 5452 5450 5448 5447 5445 5443 5441 5439 5436 5434 5432 5429 5427 5424 5422 5419 5416 5413 5411 5408 5405 5402 5399 5397 5394 5390
5427 5429 5431 5433 5435 5437 5439 5441 5442 5444 5446 5448 5449 5451 5452 5454 5455 5456 5457 5459 5460 5461 5462 5462 5463 5463 5464 5464 5464 5464 5464 5464 5464 5463 5463 5462 5462 5462 5462 5462 5462 5462 5462 5461 5461 5460 5459 5458 5458 5457 5456 5455 5454 5453 5451 5450 5448 5447 5445 5444 5442 5440 5439 5437 5435 5433 5431 5429 5427 5424 5422 5419 5417 5414 5411 5409 5406 5403 5400 5397 5394 5391 5388 5384 5381 5378 5375
5420 5422 5424 5426 5428 5430 5432 5433 5435 5437 5438 5440 5441 5442 5444 5445 5446 5447 5448 5450 5451 5452 5453 5453 5454 5454 5455 5455 5455 5454 5454 5454 5454 5453 5453 5453 5452 5452 5452 5452 5451 5451 5450 5450 5449 5448 5448 5447 5446 5445 5444 5443 5442 5441 5439 5438 5436 5435 5433 5432 5430 5428 5427 5425 5423 5421 5419 5417 5415 5412 5409 5407 5404 5401 5398 5395 5392 5389 5386 5383 5379 5376 5373 5370 5367 5363 5360
5413 5415 5417 5418 5421 5423 5424 5426 5428 5429 5430 5432 5433 5434 5435 5436 5437 5438 5440 5441 5441 5442 5443 5444 5444 5445 5445 5445 5445 5445 5445 5444 5444 5444 5444 5443 5442 5442 5441 5441 5440 5440 5439 5438 5437 5436 5436 5435 5434 5433 5431 5430 5429 5428 5427 5426 5424 5423 5421 5419 5418 5416 5414 5412 5410 5408 5406 5404 5402 5399 5396 5394 5391 5388 5385 5381 5378 5375 5372 5369 5365 5362 5359 5355 5352 5349 5345
5406 5408 5409 5411 5413 5415 5417 5418 5420 5421 5422 5424 5425 5425 5426 5428 5429 5429 5430 5431 5432 5433 5434 5434 5435 5435 5435 5435 5435 5435 5435 5434 5434 5433 5433 5432 5431 5431 5430 5430 5429 5428 5427 5426 5426 5425 5424 5423 5422 5421 5420 5419 5418 5416 5415 5414 5412 5410 5409 5407 5405 5403 5401 5399 5397 5395 5393 5390 5388 5385 5382 5380 5376 5373 5370 5367 5364 5361 5358 5354 5351 5348 5344 5340 5337 5333 5329
5398 5400 5402 5403 5405 5407 5409 5410 5412 5413 5414 5415 5416 5417 5418 5419 5420 5421 5421 5422 5423 5424 5424 5425 5425 5425 5425 5425 5425 5424 5424 5423 5423 5422 5421 5421 5420 5419 5418 5417 5417 5416 5415 5414 5413 5413 5412 5411 5410 5410 5409 5407 5406 5405 5403 5401 5400 5398 5396 5394 5392 5390 5388 5386 5383 5381 5379 5376 5374 5371 5368 5365 5362 5359 5356 5353 5349 5346 5343 5340 5336 5332 5328 5325 5321 5317 5312
5391 5392 5394 5396 5398 5399 5401 5402 5404 5405 5406 5407 5408 5409 5410 5410 5411 5412 5412 5413 5413 5414 5414 5414 5414 5414 5414 5414 5414 5413 5412 5412 5411 5410 5409 5408 5408 5407 5406 5405 5404 5403 5402 5402 5402 5401 5401 5400 5399 5398 5396 5395 5394 5392 5390 5389 5387 5385 5383 5380 5378 5376 5374 5372 5369 5367 5365 5362 5359 5357 5354 5351 5347 5344 5341 5338 5334 5331 5327 5324 5320 5317 5313 5309 5305 5301 5297
5383 5385 5386 5388 5390 5391 5393 5394 5396 5396 5397 5398 5399 5400 5400 5401 5402 5402 5402 5403 5404 5404 5404 5404 5404 5404 5403 5403 5402 5402 5401 5400 5399 5398 5397 5396 5396 5395 5394 5394 5393 5392 5392 5391 5390 5389 5389 5388 5387 5386 5385 5383 5381 5379 5378 5376 5374 5372 5369 5367 5365 5363 5360 5358 5356 5353 5350 5348 5345 5342 5339 5336 5332 5329 5326 5322 5319 5315 5312 5308 5305 5301 5298 5294 5291 5287 5283
5375 5376 5378 5379 5381 5382 5384 5385 5386 5387 5388 5389 5390 5390 5391 5392 5392 5392 5393 5393 5393 5393 5393 5393 5393 5392 5392 5392 5391 5390 5390 5389 5388 5387 5386 5385 5384 5383 5383 5382 5382 5381 5380 5379 5378 5377 5376 5376 5375 5374 5372 5370 5368 5366 5364 5362 5360 5358 5356 5354 5351 5349 5347 5344 5341 5339 5336 5334 5331 5328 5324 5321 5317 5314 5310 5307 5303 5300 5297 5293 5290 5287 5283 5280 5276 5273 5269
5366 5368 5369 5371 5372 5373 5375 5376 5377 5378 5379 5380 5381 5381 5382 5382 5382 5382 5383 5383 5383 5382 5382 5382 5382 5381 5381 5380 5379 5379 5378 5377 5376 5376 5375 5374 5373 5372 5371 5371 5370 5369 5368 5367 5366 5365 5363 5362 5361 5360 5359 5357 5355 5353 5351 5349 5347 5344 5342 5340 5337 5335 5332 5329 5327 5324 5321 5318 5316 5312 5309 5305 5302 5298 5295 5292 5288 5285 5282 5279 5276 5272 5269 5266 5263 5259 5256
5358 5360 5361 5363 5364 5365 5366 5367 5368 5369 5369 5370 5371 5371 5372 5372 5372 5372 5372 5372 5372 5372 5371 5371 5371 5370 5370 5369 5368 5367 5367 5366 5365 5364 5363 5362 5361 5360 5360 5359 5358 5357 5356 5355 5353 5352 5350 5349 5348 5346 5344 5343 5341 5339 5337 5335 5333 5330 5328 5325 5323 5320 5317 5314 5311 5309 5306 5303 5300 5296 5293 5290 5287 5284 5280 5277 5274 5271 5268 5265 5262 5259 5256 5253 5250 5247 5244